Вернуться в каталог

STARLINK-32690

АктивенСвязьVLEO
NORAD 62453·PAYLOAD·🇺🇸 United States

Запущен Dec 29, 2024 с Vandenberg Space Force Base

Loading…

Ближайшие Пролёты (ближайшие 24 часа)

TLE

СвежийSource: CelesTrak SupGP

Эпоха: Sep 15, 2026, 03:09 UTC

1 62453C 24251X   26258.13173611 -.00009405  00000+0 -27789-3 0  2583
2 62453  53.1578 172.7471 0001320  77.4977 142.2100 15.34392868    17

Отслеживайте STARLINK-32690 в реальном времени с AllMySat

Download on the App Store